Location: Columbus
(29.5618°N, 96.6770°W)
Time: 11:18:56
(UTC-06:00)

Daily predictions for brighter satellites

Satellite Brightness Start Highest point End
(mag) Time Altitude Azimuth Time Altitude Azimuth Time Altitude Azimuth
Cosmos 1975 Rocket 3.9 18:39:35 10° NNW 18:43:48 57° W 18:48:02 10° S
METEOR-M 4.5 18:42:22 10° SE 18:47:24 44° ENE 18:52:25 10° N
Cosmos 1536 4.1 18:45:00 10° SE 18:47:52 19° E 18:50:44 10° NE
Cosmos 44 3.1 18:44:57 10° NNW 18:49:18 82° WSW 18:53:33 10° SSE
GEOS 3 Rocket 3.9 18:44:33 10° NE 18:49:41 53° ESE 18:54:50 10° SSW
Cosmos 1633 2.8 18:48:41 10° SSE 18:52:12 46° E 18:55:45 10° NNE
Cosmos 1023 Rocket 4.4 18:47:50 10° S 18:52:50 63° ESE 18:57:53 10° NNE
COSMOS 2428 4.5 18:51:33 10° NE 18:53:23 11° ENE 18:55:12 10° ENE
Okean 1 3.3 18:54:32 10° N 18:58:36 67° E 19:02:37 10° SSE
Cosmos 1812 3.1 18:54:57 10° NNW 18:58:47 68° W 19:02:36 10° S
Cosmos 1741 Rocket 4.4 18:55:10 10° S 19:00:03 41° E 19:04:55 10° NNE
Cosmos 1536 Rocket 3.6 18:58:23 10° N 19:02:49 61° E 19:07:14 10° SSE
Cosmos 2219 3.5 19:02:46 10° S 19:08:14 46° ESE 19:13:41 10° NNE
Cosmos 2360 Rocket 2.6 19:07:45 10° N 19:13:05 41° ENE 19:18:23 10° SE
Cosmos 2227 Rocket 4.0 19:12:37 10° ESE 19:13:25 11° ESE 19:13:25 11° ESE
Meteor 1-11 Rocket 3.7 19:12:16 10° S 19:18:00 80° E 19:23:53 10° N
DNEPR-1 R/B 3.8 19:15:15 10° NNW 19:19:26 71° WSW 19:23:52 10° SSE
BREEZE-M DEB (TANK) 3.8 19:15:26 10° WSW 19:21:18 46° NW 19:23:46 11° NNE
Cosmos 1602 4.1 19:17:43 10° SSW 19:21:32 67° W 19:25:25 10° N
Cosmos 1140 Rocket 4.0 19:18:19 10° SSW 19:23:22 61° WNW 19:28:28 10° N
Resurs 01 Rocket 2.1 19:19:47 10° SE 19:23:48 36° ENE 19:27:49 10° N
Cosmos 1461 3.3 19:20:05 10° NW 19:24:06 63° WSW 19:28:14 10° SSE
Cosmos 1300 Rocket 3.8 19:20:25 10° SSW 19:24:47 72° W 19:29:13 10° N
Abrixas rocket 3.0 19:24:05 10° WSW 19:27:21 48° NW 19:29:39 17° NNE
DELTA 2 R/B (1) 4.1 19:23:08 10° NW 19:28:31 45° NNE 19:31:31 24° E
ATLAS CENTAUR R/B 2.2 19:22:34 10° SSW 19:29:21 51° SE 19:30:46 30° ENE
Cosmos 614 Rocket 4.2 19:26:01 10° SSW 19:31:05 71° WNW 19:36:09 10° N
ALOS 2.2 19:28:02 10° SSE 19:32:39 66° ENE 19:37:16 10° N
ASTRO E2 4.2 19:29:19 10° W 19:32:53 30° SSW 19:35:40 14° SSE
OAO 3 Copernicus 4.4 19:27:56 10° WNW 19:32:58 62° NNE 19:35:29 29° E
FREGAT/IRIS 3.5 19:31:35 10° S 19:34:35 53° W 19:37:36 10° NNW
Spot 2 Rocket 3.5 19:33:45 10° SSE 19:38:38 53° ENE 19:43:33 10° N
Resurs 1-3 3.7 19:37:16 10° SSE 19:41:29 48° ENE 19:45:42 10° N
Delta R/B 4.3 19:26:51 10° WSW 19:41:45 69° S 19:43:34 34° ESE
Cosmos 1340 3.8 19:41:12 10° NNW 19:44:50 46° W 19:48:27 10° SSW
Cosmos 2181 Rocket 4.2 19:40:32 10° N 19:46:47 75° W 19:53:08 10° S
Cosmos 2333 Rocket 4.1 19:45:07 10° NNE 19:46:14 13° NE 19:46:14 13° NE
Cosmos 2208 Rocket 4.3 19:43:44 10° N 19:48:56 45° ENE 19:50:30 36° ESE
SL-16 R/B 4.2 19:44:51 10° NW 19:49:41 30° WSW 19:54:31 10° SSW
HJ-1C 4.0 19:49:35 10° S 19:52:53 57° W 19:56:13 10° NNW
OTV 4 1.3 19:50:35 10° SW 19:52:48 44° SW 19:52:48 44° SW
Cosmos 2074 Rocket 3.9 19:48:25 10° S 19:54:39 90° ESE 20:00:57 10° N
Helios 1B rocket 2.3 19:54:32 18° NNE 19:57:32 74° ESE 20:01:40 10° S
Cosmos 2184 Rocket 4.0 19:51:21 10° S 19:57:41 89° W 20:04:00 10° N
FengYun 1-2 T 4.3 19:52:51 10° S 19:58:18 75° WSW 20:03:47 10° NNW
Tiangong 2 1.9 19:56:09 10° WNW 19:58:32 49° WNW 19:58:32 49° WNW
CZ-3C R/B 2.6 20:01:29 10° SW 20:03:40 16° SSW 20:03:40 16° SSW
Meteor 1-5 Rocket 4.4 19:59:18 10° S 20:05:14 78° W 20:11:12 10° N
FENGYUN 3A 4.1 20:00:04 10° S 20:05:23 60° W 20:10:45 10° NNW
Hubble Space Telescope 1.4 20:03:16 10° WSW 20:06:47 46° SSW 20:06:47 46° SSW
H-II Stage 2 4.0 20:06:12 10° SSW 20:06:18 10° SSW 20:06:18 10° SSW
BREEZE-M DEB (TANK) 3.9 20:14:53 10° NNW 20:17:20 37° NNE 20:17:20 37° NNE
GPS 2-04 Rocket1 3.9 20:17:26 10° W 20:21:01 39° NNW 20:21:01 39° NNW
H-2A R/B 4.0 20:21:38 35° WSW 20:22:14 38° W 20:25:44 10° NNW
Cosmos 2322 4.5 20:17:11 10° NNW 20:22:41 50° WSW 20:28:08 10° S
Cosmos 1025 Rocket 3.6 20:21:23 10° NNW 20:25:41 57° W 20:25:45 57° W
Cosmos 2154 Rocket 3.9 20:20:19 10° S 20:26:39 80° E 20:33:01 10° N
Atlas Centaur 2 3.5 20:21:11 10° SW 20:26:14 30° S 20:26:14 30° S
OAO 3 Rocket 4.2 20:22:40 10° SW 20:26:02 39° SSW 20:26:02 39° SSW
Cosmos 2285 Rocket 3.9 20:26:49 10° NNW 20:32:48 72° NNE 20:32:48 72° NNE
COSMOS 2428 2.8 20:32:31 10° NNW 20:37:45 72° WNW 20:37:45 72° WNW
Cosmos 2297 Rocket 4.3 20:32:49 10° S 20:33:28 13° S 20:33:28 13° S
Cosmos 2237 Rocket 4.4 20:37:07 10° N 20:37:45 13° N 20:37:45 13° N
Cosmos 2227 Rocket 3.7 20:52:43 10° SSW 20:55:24 28° SW 20:55:24 28° SW
Cosmos 2219 Rocket 3.9 20:53:19 10° NNW 20:55:22 23° NNW 20:55:22 23° NNW
